ETD333 VTBS-OEJN

Flight info

Callsign ETD333
Flight time 7h 53m
Altitude 36000
Route PASTO1F PASTO L301 BETKU/N0495F380 L301 KARKU W103 DOGET N571 RAGMA DCT MCT DCT LAKLU DCT KUTNA DCT KITUB Y511 ASMIS T218 IMGUT M309 VEMEM
Aircraft A35K/H-SDE2E3GHIJ3J4J5LM1ORWXY/LB1D1

Departure

Time 2026-05-05 06:14
Airport Suvarnabhumi Airport (VTBS)

Arrival

Time 2026-05-05 14:07
Airport King Abdulaziz International Airport (OEJN)
Time Latitude Longitude Altitude Speed Heading
2026-05-05 05:40 13.69576 100.74690 14 ft 0 kts 104°
2026-05-05 05:54 13.69577 100.74687 14 ft 0 kts 104°
2026-05-05 05:54 13.69581 100.74672 16 ft 2 kts 105°
2026-05-05 05:54 13.69585 100.74656 16 ft 2 kts 105°
2026-05-05 05:55 13.69589 100.74639 16 ft 2 kts 105°
2026-05-05 05:55 13.69594 100.74623 15 ft 2 kts 107°
2026-05-05 05:55 13.69603 100.74610 16 ft 2 kts 179°
2026-05-05 05:55 13.69615 100.74611 18 ft 1 kts 193°
2026-05-05 05:56 13.69616 100.74612 18 ft 0 kts 193°
2026-05-05 06:02 13.69610 100.74610 14 ft 2 kts 193°
2026-05-05 06:02 13.69591 100.74606 14 ft 4 kts 193°
2026-05-05 06:03 13.69559 100.74598 14 ft 6 kts 193°
2026-05-05 06:03 13.69516 100.74587 14 ft 7 kts 193°
2026-05-05 06:03 13.69464 100.74568 14 ft 8 kts 217°
2026-05-05 06:03 13.69449 100.74513 14 ft 9 kts 274°
2026-05-05 06:04 13.69461 100.74446 14 ft 10 kts 283°
2026-05-05 06:04 13.69479 100.74370 14 ft 12 kts 283°
2026-05-05 06:04 13.69475 100.74288 14 ft 12 kts 231°
2026-05-05 06:04 13.69397 100.74256 13 ft 13 kts 194°
2026-05-05 06:05 13.69308 100.74233 14 ft 14 kts 194°
2026-05-05 06:05 13.69210 100.74207 14 ft 15 kts 195°
2026-05-05 06:05 13.69103 100.74178 14 ft 16 kts 195°
2026-05-05 06:05 13.68990 100.74147 14 ft 17 kts 195°
2026-05-05 06:06 13.68875 100.74117 15 ft 18 kts 194°
2026-05-05 06:06 13.68752 100.74086 15 ft 19 kts 193°
2026-05-05 06:06 13.68623 100.74054 15 ft 20 kts 193°
2026-05-05 06:06 13.68490 100.74017 15 ft 20 kts 195°
2026-05-05 06:07 13.68350 100.73980 15 ft 21 kts 193°
2026-05-05 06:07 13.68204 100.73944 15 ft 22 kts 194°
2026-05-05 06:07 13.68054 100.73904 14 ft 23 kts 194°
2026-05-05 06:07 13.67901 100.73864 14 ft 21 kts 194°
2026-05-05 06:08 13.67774 100.73830 14 ft 18 kts 194°
2026-05-05 06:08 13.67654 100.73798 15 ft 18 kts 194°
2026-05-05 06:08 13.67539 100.73753 15 ft 15 kts 229°
2026-05-05 06:08 13.67539 100.73680 16 ft 10 kts 286°
2026-05-05 06:09 13.67551 100.73634 15 ft 10 kts 283°
2026-05-05 06:09 13.67568 100.73558 18 ft 11 kts 283°
2026-05-05 06:09 13.67590 100.73477 16 ft 12 kts 288°
2026-05-05 06:09 13.67578 100.73407 18 ft 10 kts 220°
2026-05-05 06:10 13.67508 100.73382 16 ft 12 kts 194°
2026-05-05 06:10 13.67423 100.73359 15 ft 14 kts 194°
2026-05-05 06:10 13.67325 100.73334 15 ft 15 kts 194°
2026-05-05 06:10 13.67219 100.73306 15 ft 16 kts 194°
2026-05-05 06:11 13.67103 100.73276 14 ft 18 kts 194°
2026-05-05 06:11 13.66979 100.73244 14 ft 19 kts 194°
2026-05-05 06:11 13.66850 100.73206 14 ft 20 kts 195°
2026-05-05 06:11 13.66714 100.73170 14 ft 21 kts 194°
2026-05-05 06:12 13.66574 100.73134 15 ft 21 kts 194°
2026-05-05 06:12 13.66441 100.73090 18 ft 17 kts 216°
2026-05-05 06:12 13.66435 100.72987 16 ft 12 kts 307°
2026-05-05 06:12 13.66494 100.72953 15 ft 11 kts 332°
2026-05-05 06:13 13.66568 100.72941 15 ft 11 kts 10°
2026-05-05 06:13 13.66578 100.72943 15 ft 1 kts 12°
2026-05-05 06:13 13.66812 100.73003 13 ft 69 kts 14°
2026-05-05 06:13 13.67481 100.73178 20 ft 128 kts 14°
2026-05-05 06:14 13.68515 100.73449 14 ft 178 kts 15°
2026-05-05 06:14 13.69742 100.73738 687 ft 173 kts 14°
2026-05-05 06:14 13.70895 100.74021 1399 ft 170 kts 15°
2026-05-05 06:14 13.72061 100.74370 1747 ft 180 kts 19°
2026-05-05 06:15 13.73304 100.74811 2008 ft 198 kts 20°
2026-05-05 06:15 13.74661 100.75301 2267 ft 217 kts 20°
2026-05-05 06:15 13.76159 100.75821 2523 ft 238 kts 19°
2026-05-05 06:15 13.77792 100.76324 2848 ft 256 kts 15°
2026-05-05 06:16 13.79546 100.76773 3421 ft 262 kts 14°
2026-05-05 06:16 13.81335 100.77226 4061 ft 268 kts 14°
2026-05-05 06:16 13.83155 100.77694 4700 ft 272 kts 15°
2026-05-05 06:16 13.84999 100.78174 5364 ft 275 kts 15°
2026-05-05 06:17 13.86865 100.78667 6047 ft 278 kts 15°
2026-05-05 06:17 13.88746 100.79159 6707 ft 281 kts 15°
2026-05-05 06:17 13.90648 100.79656 7360 ft 283 kts 15°
2026-05-05 06:17 13.92568 100.80161 8052 ft 286 kts 15°
2026-05-05 06:18 13.94535 100.80493 8710 ft 290 kts
2026-05-05 06:18 13.96500 100.80031 9375 ft 295 kts 333°
2026-05-05 06:18 13.98125 100.78742 9831 ft 299 kts 316°
2026-05-05 06:18 13.99567 100.77184 9975 ft 301 kts 313°
2026-05-05 06:19 14.00984 100.75598 9989 ft 301 kts 313°
2026-05-05 06:19 14.02409 100.74017 9990 ft 301 kts 313°
2026-05-05 06:19 14.03822 100.72464 9992 ft 301 kts 314°
2026-05-05 06:19 14.05263 100.70890 9989 ft 302 kts 314°
2026-05-05 06:20 14.06490 100.69143 9973 ft 302 kts 295°
2026-05-05 06:20 14.07062 100.67066 10080 ft 305 kts 279°
2026-05-05 06:20 14.07399 100.64858 10296 ft 320 kts 278°
2026-05-05 06:20 14.07735 100.62534 10576 ft 337 kts 278°
2026-05-05 06:21 14.08096 100.60098 10853 ft 352 kts 279°
2026-05-05 06:21 14.08477 100.57560 11128 ft 366 kts 279°
2026-05-05 06:21 14.08875 100.54921 11412 ft 379 kts 279°
2026-05-05 06:21 14.09288 100.52196 11673 ft 391 kts 279°
2026-05-05 06:22 14.09715 100.49411 12064 ft 397 kts 279°
2026-05-05 06:22 14.10143 100.46584 12534 ft 400 kts 279°
2026-05-05 06:22 14.10572 100.43746 13052 ft 403 kts 279°
2026-05-05 06:22 14.11005 100.40878 13496 ft 407 kts 279°
2026-05-05 06:23 14.11443 100.37983 13937 ft 410 kts 279°
2026-05-05 06:23 14.11788 100.35062 14362 ft 413 kts 272°
2026-05-05 06:23 14.11655 100.32102 14806 ft 414 kts 263°
2026-05-05 06:23 14.11265 100.29157 15246 ft 416 kts 262°
2026-05-05 06:24 14.10841 100.26198 15665 ft 419 kts 262°
2026-05-05 06:24 14.10415 100.23214 16076 ft 422 kts 262°
2026-05-05 06:24 14.09992 100.20220 16497 ft 424 kts 262°
2026-05-05 06:24 14.09568 100.17204 16928 ft 426 kts 262°
2026-05-05 06:25 14.09149 100.14223 17335 ft 428 kts 262°
2026-05-05 06:25 14.08722 100.11172 17739 ft 431 kts 262°
2026-05-05 06:25 14.08294 100.08112 18141 ft 433 kts 262°
2026-05-05 06:25 14.07865 100.05035 18490 ft 436 kts 262°
2026-05-05 06:26 14.07431 100.01938 18858 ft 437 kts 262°
2026-05-05 06:26 14.06996 99.98838 19219 ft 438 kts 262°
2026-05-05 06:26 14.06559 99.95725 19568 ft 440 kts 262°
2026-05-05 06:26 14.06120 99.92594 19920 ft 442 kts 262°
2026-05-05 06:27 14.05678 99.89455 20273 ft 444 kts 262°
2026-05-05 06:27 14.04788 99.83136 20981 ft 448 kts 262°
2026-05-05 06:27 14.04339 99.79945 21276 ft 452 kts 262°
2026-05-05 06:28 14.03887 99.76741 21638 ft 453 kts 262°
2026-05-05 06:28 14.03433 99.73527 22002 ft 455 kts 262°
2026-05-05 06:28 14.02975 99.70288 22356 ft 457 kts 262°
2026-05-05 06:28 14.02516 99.67043 22706 ft 460 kts 262°
2026-05-05 06:29 14.02054 99.63782 23054 ft 462 kts 262°
2026-05-05 06:29 14.01588 99.60495 23403 ft 465 kts 262°
2026-05-05 06:29 14.01120 99.57198 23698 ft 467 kts 262°
2026-05-05 06:29 14.00648 99.53877 23987 ft 469 kts 262°
2026-05-05 06:30 14.00312 99.50536 24291 ft 471 kts 268°
2026-05-05 06:30 14.00377 99.47167 24615 ft 472 kts 274°
2026-05-05 06:30 14.00623 99.43794 24952 ft 473 kts 276°
2026-05-05 06:30 14.00950 99.40409 25281 ft 476 kts 276°
2026-05-05 06:31 14.01307 99.37019 25637 ft 478 kts 277°
2026-05-05 06:31 14.01668 99.33613 25986 ft 480 kts 276°
2026-05-05 06:31 14.02023 99.30184 26335 ft 482 kts 276°
2026-05-05 06:31 14.02368 99.26740 26710 ft 485 kts 276°
2026-05-05 06:32 14.02704 99.23280 27088 ft 487 kts 276°
2026-05-05 06:32 14.03037 99.19795 27485 ft 490 kts 276°
2026-05-05 06:32 14.03368 99.16301 27862 ft 492 kts 276°
2026-05-05 06:32 14.03699 99.12781 28229 ft 495 kts 276°
2026-05-05 06:33 14.04031 99.09251 28604 ft 497 kts 276°
2026-05-05 06:33 14.04360 99.05752 29032 ft 497 kts 276°
2026-05-05 06:33 14.04698 99.02158 29407 ft 499 kts 276°
2026-05-05 06:33 14.05028 98.98646 29857 ft 498 kts 276°
2026-05-05 06:34 14.05356 98.95100 30270 ft 497 kts 275°
2026-05-05 06:34 14.05623 98.91560 30705 ft 495 kts 274°
2026-05-05 06:34 14.05844 98.88019 31083 ft 495 kts 274°
2026-05-05 06:34 14.06048 98.84488 31465 ft 494 kts 274°
2026-05-05 06:35 14.06252 98.80957 31843 ft 493 kts 274°
2026-05-05 06:35 14.06462 98.77445 32222 ft 492 kts 274°
2026-05-05 06:35 14.06679 98.73929 32590 ft 491 kts 274°
2026-05-05 06:35 14.06900 98.70429 32960 ft 490 kts 274°
2026-05-05 06:36 14.07124 98.66930 33326 ft 489 kts 274°
2026-05-05 06:36 14.07349 98.63445 33666 ft 488 kts 274°
2026-05-05 06:36 14.07574 98.59958 33997 ft 487 kts 274°
2026-05-05 06:36 14.07798 98.56485 34271 ft 486 kts 274°
2026-05-05 06:37 14.08021 98.53012 34565 ft 485 kts 274°
2026-05-05 06:37 14.08241 98.49549 34810 ft 485 kts 274°
2026-05-05 06:37 14.08461 98.46075 34874 ft 485 kts 274°
2026-05-05 06:38 14.08899 98.39149 34882 ft 484 kts 274°
2026-05-05 06:38 14.09334 98.32226 34869 ft 485 kts 274°
2026-05-05 06:39 14.09769 98.25296 34878 ft 485 kts 274°
2026-05-05 06:39 14.10678 98.18435 34871 ft 484 kts 283°
2026-05-05 06:40 14.12271 98.11704 34868 ft 484 kts 285°
2026-05-05 06:40 14.13969 98.04999 34868 ft 484 kts 285°
2026-05-05 06:41 14.15670 97.98295 34866 ft 484 kts 285°
2026-05-05 06:41 14.17359 97.91574 35190 ft 484 kts 285°
2026-05-05 06:41 14.18196 97.88228 35497 ft 482 kts 285°
2026-05-05 06:42 14.19030 97.84890 35762 ft 481 kts 285°
2026-05-05 06:42 14.20706 97.78174 35860 ft 487 kts 285°
2026-05-05 06:43 14.22389 97.71418 35871 ft 486 kts 285°
2026-05-05 06:43 14.24069 97.64666 35859 ft 486 kts 285°
2026-05-05 06:44 14.25736 97.57961 35861 ft 486 kts 285°
2026-05-05 06:44 14.27414 97.51204 35867 ft 487 kts 285°
2026-05-05 06:45 14.29091 97.44441 35866 ft 487 kts 285°
2026-05-05 06:45 14.30765 97.37681 35864 ft 487 kts 285°
2026-05-05 06:46 14.32439 97.30916 35869 ft 487 kts 285°
2026-05-05 06:46 14.34110 97.24149 35868 ft 487 kts 284°
2026-05-05 06:47 14.35780 97.17383 35868 ft 487 kts 284°
2026-05-05 06:47 14.37447 97.10617 35872 ft 487 kts 284°
2026-05-05 06:48 14.39112 97.03849 35873 ft 487 kts 284°
2026-05-05 06:48 14.40777 96.97075 35869 ft 487 kts 284°
2026-05-05 06:49 14.42438 96.90305 35871 ft 487 kts 284°
2026-05-05 06:49 14.44098 96.83534 35873 ft 487 kts 284°
2026-05-05 06:50 14.45755 96.76763 35874 ft 487 kts 284°
2026-05-05 06:50 14.47410 96.69992 35870 ft 487 kts 284°
2026-05-05 06:51 14.49064 96.63216 35873 ft 488 kts 284°
2026-05-05 06:51 14.50721 96.56423 35870 ft 488 kts 284°
2026-05-05 06:52 14.52375 96.49629 35873 ft 488 kts 284°
2026-05-05 06:52 14.54028 96.42834 35872 ft 488 kts 284°
2026-05-05 06:53 14.55678 96.36039 35873 ft 488 kts 284°
2026-05-05 06:53 14.57326 96.29242 35869 ft 488 kts 284°
2026-05-05 06:54 14.58971 96.22449 35876 ft 488 kts 284°
2026-05-05 06:54 14.60617 96.15643 35870 ft 488 kts 284°
2026-05-05 06:55 14.62259 96.08843 35875 ft 488 kts 284°
2026-05-05 06:55 14.63902 96.02034 35872 ft 488 kts 284°
2026-05-05 06:56 14.65264 95.96378 35877 ft 488 kts 284°
2026-05-05 06:56 14.66902 95.89571 35878 ft 488 kts 284°
2026-05-05 06:57 14.68537 95.82767 35880 ft 488 kts 284°
2026-05-05 06:57 14.70171 95.75958 35872 ft 488 kts 284°
2026-05-05 06:58 14.72068 95.68043 35877 ft 488 kts 283°
2026-05-05 06:58 14.73433 95.62337 35874 ft 488 kts 283°
2026-05-05 06:59 14.75058 95.55536 35879 ft 488 kts 283°
2026-05-05 06:59 14.76681 95.48734 35878 ft 488 kts 283°
2026-05-05 07:00 14.78304 95.41926 35875 ft 488 kts 283°
2026-05-05 07:00 14.79923 95.35121 35886 ft 488 kts 283°
2026-05-05 07:01 14.81529 95.28364 35885 ft 487 kts 283°
2026-05-05 07:01 14.83143 95.21566 35880 ft 487 kts 283°
2026-05-05 07:02 14.84754 95.14767 35878 ft 487 kts 283°
2026-05-05 07:02 14.86374 95.07921 35881 ft 487 kts 283°
2026-05-05 07:03 14.87972 95.01161 35883 ft 487 kts 283°
2026-05-05 07:03 14.89578 94.94354 35877 ft 488 kts 283°
2026-05-05 07:04 14.91181 94.87552 35882 ft 487 kts 283°
2026-05-05 07:04 14.92785 94.80740 35879 ft 487 kts 283°
2026-05-05 07:05 14.94385 94.73934 35882 ft 487 kts 283°
2026-05-05 07:05 14.95983 94.67125 35881 ft 487 kts 283°
2026-05-05 07:06 14.97579 94.60312 35882 ft 487 kts 283°
2026-05-05 07:06 14.99173 94.53503 35880 ft 487 kts 283°
2026-05-05 07:07 15.00762 94.46705 35884 ft 486 kts 283°
2026-05-05 07:07 15.02348 94.39908 35881 ft 486 kts 283°
2026-05-05 07:08 15.03932 94.33111 35878 ft 486 kts 283°
2026-05-05 07:08 15.05513 94.26314 35880 ft 486 kts 283°
2026-05-05 07:09 15.07093 94.19517 35878 ft 486 kts 283°
2026-05-05 07:09 15.08672 94.12711 35881 ft 486 kts 283°
2026-05-05 07:10 15.10246 94.05918 35879 ft 485 kts 283°
2026-05-05 07:10 15.11818 93.99124 35879 ft 485 kts 283°
2026-05-05 07:11 15.13388 93.92329 35880 ft 485 kts 283°
2026-05-05 07:11 15.14955 93.85536 35876 ft 486 kts 283°
2026-05-05 07:12 15.16523 93.78730 35876 ft 486 kts 283°
2026-05-05 07:12 15.18086 93.71935 35880 ft 485 kts 283°
2026-05-05 07:13 15.19646 93.65144 35878 ft 485 kts 283°
2026-05-05 07:13 15.21204 93.58351 35875 ft 485 kts 283°
2026-05-05 07:14 15.22760 93.51558 35876 ft 485 kts 283°
2026-05-05 07:14 15.24315 93.44759 35879 ft 485 kts 283°
2026-05-05 07:15 15.25865 93.37970 35878 ft 485 kts 283°
2026-05-05 07:15 15.27406 93.31214 35884 ft 485 kts 283°
2026-05-05 07:16 15.28953 93.24419 35884 ft 485 kts 283°
2026-05-05 07:16 15.30499 93.17621 35884 ft 485 kts 283°
2026-05-05 07:17 15.32042 93.10823 35886 ft 485 kts 283°
2026-05-05 07:17 15.33583 93.04027 35876 ft 485 kts 283°
2026-05-05 07:18 15.35122 92.97228 35885 ft 484 kts 283°
2026-05-05 07:18 15.36654 92.90451 35881 ft 484 kts 283°
2026-05-05 07:19 15.38185 92.83665 35881 ft 484 kts 283°
2026-05-05 07:19 15.39714 92.76878 35879 ft 484 kts 283°
2026-05-05 07:20 15.41241 92.70092 35885 ft 484 kts 283°
2026-05-05 07:20 15.42768 92.63300 35888 ft 483 kts 283°
2026-05-05 07:21 15.44371 92.56536 35886 ft 483 kts 284°
2026-05-05 07:21 15.46070 92.49798 35885 ft 483 kts 284°
2026-05-05 07:22 15.47761 92.43056 35886 ft 483 kts 284°
2026-05-05 07:22 15.49433 92.36302 35885 ft 483 kts 284°
2026-05-05 07:23 15.51083 92.29594 35886 ft 483 kts 284°
2026-05-05 07:23 15.52741 92.22844 35886 ft 483 kts 284°
2026-05-05 07:24 15.54397 92.16093 35883 ft 483 kts 284°
2026-05-05 07:24 15.56052 92.09342 35886 ft 483 kts 284°
2026-05-05 07:25 15.57705 92.02589 35884 ft 483 kts 284°
2026-05-05 07:25 15.59356 91.95835 35886 ft 483 kts 284°
2026-05-05 07:26 15.60980 91.89078 35886 ft 483 kts 284°
2026-05-05 07:26 15.62597 91.82322 35880 ft 482 kts 284°
2026-05-05 07:27 15.64216 91.75570 35896 ft 482 kts 284°
2026-05-05 07:27 15.65834 91.68822 35889 ft 482 kts 284°
2026-05-05 07:28 15.67453 91.62065 35890 ft 482 kts 284°
2026-05-05 07:28 15.69068 91.55314 35888 ft 482 kts 284°
2026-05-05 07:29 15.70679 91.48566 35887 ft 482 kts 284°
2026-05-05 07:29 15.72291 91.41809 35885 ft 482 kts 283°
2026-05-05 07:30 15.73902 91.35043 35884 ft 482 kts 283°
2026-05-05 07:30 15.76310 91.24909 35889 ft 482 kts 283°
2026-05-05 07:31 15.77915 91.18147 35885 ft 482 kts 283°
2026-05-05 07:31 15.79518 91.11382 35885 ft 482 kts 283°
2026-05-05 07:32 15.81116 91.04628 35885 ft 482 kts 283°
2026-05-05 07:32 15.82715 90.97858 35887 ft 482 kts 283°
2026-05-05 07:33 15.84298 90.91144 35889 ft 482 kts 283°
2026-05-05 07:33 15.85906 90.84318 35889 ft 491 kts 283°
2026-05-05 07:34 15.87536 90.77387 35888 ft 497 kts 283°
2026-05-05 07:34 15.89177 90.70398 35884 ft 499 kts 283°
2026-05-05 07:35 15.90821 90.63389 35886 ft 499 kts 283°
2026-05-05 07:35 15.92462 90.56380 35886 ft 499 kts 283°
2026-05-05 07:36 15.94102 90.49364 35888 ft 499 kts 283°
2026-05-05 07:36 15.95738 90.42352 35890 ft 499 kts 283°
2026-05-05 07:37 15.97373 90.35338 35890 ft 500 kts 283°
2026-05-05 07:37 15.99010 90.28306 35888 ft 501 kts 282°
2026-05-05 07:38 16.00642 90.21277 35890 ft 499 kts 283°
2026-05-05 07:38 16.02271 90.14271 35885 ft 498 kts 283°
2026-05-05 07:39 16.03952 90.07283 35890 ft 498 kts 283°
2026-05-05 07:39 16.05640 90.00337 35886 ft 498 kts 283°
2026-05-05 07:40 16.07328 89.93348 35886 ft 499 kts 283°
2026-05-05 07:40 16.09008 89.86351 35888 ft 499 kts 283°
2026-05-05 07:41 16.10684 89.79356 35887 ft 499 kts 283°
2026-05-05 07:41 16.12358 89.72358 35887 ft 499 kts 283°
2026-05-05 07:42 16.14030 89.65360 35889 ft 499 kts 283°
2026-05-05 07:42 16.15700 89.58361 35888 ft 499 kts 283°
2026-05-05 07:43 16.17367 89.51363 35884 ft 499 kts 283°
2026-05-05 07:43 16.19033 89.44356 35886 ft 499 kts 283°
2026-05-05 07:44 16.20426 89.38489 35885 ft 499 kts 283°
2026-05-05 07:44 16.22088 89.31484 35878 ft 499 kts 283°
2026-05-05 07:45 16.23747 89.24478 35883 ft 499 kts 283°
2026-05-05 07:45 16.25396 89.17507 35884 ft 499 kts 282°
2026-05-05 07:46 16.27052 89.10490 35881 ft 499 kts 282°
2026-05-05 07:46 16.28729 89.03476 35883 ft 500 kts 283°
2026-05-05 07:47 16.30443 88.96468 35884 ft 500 kts 283°
2026-05-05 07:47 16.32157 88.89452 35882 ft 500 kts 283°
2026-05-05 07:48 16.33862 88.82438 35880 ft 500 kts 282°
2026-05-05 07:48 16.35563 88.75419 35872 ft 499 kts 282°
2026-05-05 07:49 16.37253 88.68428 35872 ft 497 kts 282°
2026-05-05 07:49 16.38940 88.61443 35872 ft 497 kts 282°
2026-05-05 07:50 16.40624 88.54462 35876 ft 497 kts 282°
2026-05-05 07:50 16.42305 88.47480 35875 ft 497 kts 282°
2026-05-05 07:51 16.43987 88.40484 35876 ft 499 kts 282°
2026-05-05 07:51 16.45671 88.33470 35875 ft 499 kts 282°
2026-05-05 07:52 16.47353 88.26450 35873 ft 499 kts 282°
2026-05-05 07:52 16.49032 88.19433 35872 ft 499 kts 282°
2026-05-05 07:53 16.50712 88.12404 35870 ft 499 kts 282°
2026-05-05 07:53 16.52386 88.05385 35871 ft 500 kts 282°
2026-05-05 07:54 16.54054 87.98382 35870 ft 501 kts 282°
2026-05-05 07:54 16.55730 87.91335 35869 ft 501 kts 282°
2026-05-05 07:55 16.57403 87.84288 35867 ft 501 kts 282°
2026-05-05 07:55 16.59067 87.77267 35868 ft 501 kts 281°
2026-05-05 07:56 16.60736 87.70215 35865 ft 501 kts 282°
2026-05-05 07:56 16.62402 87.63165 35865 ft 501 kts 281°
2026-05-05 07:57 16.64064 87.56119 35866 ft 500 kts 281°
2026-05-05 07:57 16.65725 87.49067 35862 ft 500 kts 281°
2026-05-05 07:58 16.67382 87.42020 35861 ft 500 kts 281°
2026-05-05 07:58 16.69036 87.34975 35864 ft 499 kts 281°
2026-05-05 07:59 16.70684 87.27948 35862 ft 499 kts 281°
2026-05-05 07:59 16.72328 87.20923 35859 ft 499 kts 281°
2026-05-05 08:00 16.73971 87.13891 35861 ft 499 kts 281°
2026-05-05 08:00 16.75633 87.06869 35861 ft 499 kts 282°
2026-05-05 08:01 16.77302 86.99898 35857 ft 499 kts 282°
2026-05-05 08:01 16.78977 86.92877 35853 ft 498 kts 282°
2026-05-05 08:02 16.80642 86.85865 35852 ft 498 kts 281°
2026-05-05 08:02 16.82302 86.78852 35854 ft 497 kts 281°
2026-05-05 08:03 16.83959 86.71845 35854 ft 497 kts 281°
2026-05-05 08:03 16.85614 86.64834 35853 ft 497 kts 281°
2026-05-05 08:04 16.87266 86.57824 35853 ft 497 kts 281°
2026-05-05 08:04 16.88917 86.50807 35853 ft 497 kts 281°
2026-05-05 08:05 16.90562 86.43805 35854 ft 497 kts 281°
2026-05-05 08:05 16.92205 86.36799 35853 ft 497 kts 281°
2026-05-05 08:06 16.93846 86.29791 35854 ft 497 kts 281°
2026-05-05 08:06 16.95486 86.22775 35853 ft 497 kts 281°
2026-05-05 08:07 16.97122 86.15768 35852 ft 497 kts 281°
2026-05-05 08:07 16.98758 86.08744 35854 ft 498 kts 281°
2026-05-05 08:08 17.00396 86.01706 35853 ft 498 kts 281°
2026-05-05 08:08 17.02028 85.94681 35855 ft 497 kts 281°
2026-05-05 08:09 17.03652 85.87678 35852 ft 496 kts 281°
2026-05-05 08:09 17.05271 85.80685 35853 ft 495 kts 281°
2026-05-05 08:10 17.06889 85.73682 35853 ft 495 kts 281°
2026-05-05 08:10 17.08492 85.66731 35854 ft 495 kts 281°
2026-05-05 08:11 17.10104 85.59734 35853 ft 495 kts 281°
2026-05-05 08:11 17.11714 85.52735 35852 ft 495 kts 281°
2026-05-05 08:12 17.13322 85.45729 35851 ft 495 kts 281°
2026-05-05 08:12 17.14927 85.38726 35851 ft 496 kts 281°
2026-05-05 08:13 17.16531 85.31714 35847 ft 496 kts 281°
2026-05-05 08:13 17.18166 85.24707 35847 ft 496 kts 282°
2026-05-05 08:14 17.19846 85.17703 35849 ft 496 kts 282°
2026-05-05 08:14 17.21521 85.10700 35848 ft 496 kts 282°
2026-05-05 08:15 17.23187 85.03695 35850 ft 496 kts 282°
2026-05-05 08:15 17.24850 84.96673 35848 ft 497 kts 282°
2026-05-05 08:16 17.26508 84.89660 35849 ft 497 kts 282°
2026-05-05 08:16 17.28168 84.82633 35849 ft 497 kts 282°
2026-05-05 08:17 17.29826 84.75602 35845 ft 497 kts 282°
2026-05-05 08:17 17.31481 84.68570 35846 ft 497 kts 282°
2026-05-05 08:18 17.33132 84.61543 35845 ft 497 kts 282°
2026-05-05 08:18 17.34779 84.54525 35843 ft 496 kts 282°
2026-05-05 08:19 17.36413 84.47575 35841 ft 495 kts 282°
2026-05-05 08:19 17.38141 84.40536 35843 ft 496 kts 283°
2026-05-05 08:20 17.39860 84.33601 35842 ft 496 kts 283°
2026-05-05 08:20 17.41581 84.26616 35842 ft 495 kts 283°
2026-05-05 08:21 17.43292 84.19632 35837 ft 495 kts 282°
2026-05-05 08:21 17.44999 84.12643 35838 ft 495 kts 282°
2026-05-05 08:22 17.46702 84.05658 35836 ft 495 kts 282°
2026-05-05 08:22 17.48405 83.98665 35837 ft 495 kts 282°
2026-05-05 08:23 17.50104 83.91677 35837 ft 495 kts 282°
2026-05-05 08:23 17.51851 83.84703 35838 ft 495 kts 283°
2026-05-05 08:24 17.53639 83.77738 35838 ft 495 kts 283°
2026-05-05 08:24 17.55419 83.70769 35840 ft 495 kts 283°
2026-05-05 08:25 17.57186 83.63804 35837 ft 495 kts 283°
2026-05-05 08:25 17.58948 83.56831 35840 ft 495 kts 283°
2026-05-05 08:26 17.60708 83.49858 35839 ft 495 kts 283°
2026-05-05 08:26 17.62468 83.42875 35834 ft 495 kts 283°
2026-05-05 08:27 17.64210 83.35951 35832 ft 494 kts 283°
2026-05-05 08:27 17.65957 83.29000 35828 ft 493 kts 283°
2026-05-05 08:28 17.67754 83.22066 35831 ft 493 kts 285°
2026-05-05 08:28 17.69972 83.15244 35828 ft 494 kts 288°
2026-05-05 08:29 17.72279 83.08464 35832 ft 494 kts 287°
2026-05-05 08:30 17.75637 82.98237 35842 ft 494 kts 287°
2026-05-05 08:30 17.77835 82.91408 35863 ft 494 kts 287°
2026-05-05 08:31 17.80026 82.84578 35887 ft 494 kts 287°
2026-05-05 08:31 17.82218 82.77746 35883 ft 494 kts 287°
2026-05-05 08:32 17.84411 82.70904 35881 ft 494 kts 287°
2026-05-05 08:32 17.86601 82.64071 35890 ft 494 kts 287°
2026-05-05 08:33 17.88423 82.58378 35908 ft 494 kts 287°
2026-05-05 08:33 17.90610 82.51534 35910 ft 495 kts 287°
2026-05-05 08:34 17.92794 82.44689 35908 ft 494 kts 287°
2026-05-05 08:34 17.94974 82.37846 35902 ft 494 kts 287°
2026-05-05 08:35 17.97155 82.30993 35899 ft 495 kts 287°
2026-05-05 08:35 17.99334 82.24138 35901 ft 495 kts 287°
2026-05-05 08:36 18.01509 82.17285 35900 ft 494 kts 287°
2026-05-05 08:36 18.03682 82.10429 35881 ft 495 kts 287°
2026-05-05 08:37 18.05851 82.03579 35878 ft 494 kts 287°
2026-05-05 08:37 18.08031 81.96722 35882 ft 495 kts 287°
2026-05-05 08:38 18.10274 81.89885 35869 ft 495 kts 288°
2026-05-05 08:38 18.12529 81.83049 35858 ft 495 kts 287°
2026-05-05 08:39 18.14772 81.76207 35854 ft 495 kts 287°
2026-05-05 08:39 18.16993 81.69404 35854 ft 495 kts 287°
2026-05-05 08:40 18.19223 81.62564 35857 ft 495 kts 287°
2026-05-05 08:40 18.21448 81.55728 35856 ft 494 kts 287°
2026-05-05 08:41 18.23670 81.48894 35853 ft 494 kts 287°
2026-05-05 08:41 18.25892 81.42052 35858 ft 493 kts 287°
2026-05-05 08:42 18.28103 81.35234 35865 ft 492 kts 287°
2026-05-05 08:42 18.30310 81.28418 35865 ft 492 kts 287°
2026-05-05 08:43 18.32519 81.21587 35866 ft 493 kts 287°
2026-05-05 08:43 18.34727 81.14752 35864 ft 493 kts 287°
2026-05-05 08:44 18.36933 81.07914 35864 ft 493 kts 287°
2026-05-05 08:44 18.39136 81.01073 35862 ft 493 kts 287°
2026-05-05 08:45 18.41336 80.94235 35862 ft 493 kts 287°
2026-05-05 08:45 18.43533 80.87392 35865 ft 493 kts 288°
2026-05-05 08:46 18.45729 80.80547 35864 ft 493 kts 288°
2026-05-05 08:46 18.47922 80.73701 35861 ft 493 kts 288°
2026-05-05 08:47 18.50112 80.66854 35869 ft 493 kts 287°
2026-05-05 08:47 18.52302 80.59999 35863 ft 493 kts 288°
2026-05-05 08:48 18.54456 80.53138 35867 ft 493 kts 287°
2026-05-05 08:48 18.56507 80.46252 35854 ft 492 kts 286°
2026-05-05 08:49 18.58533 80.39415 35857 ft 492 kts 287°
2026-05-05 08:49 18.60585 80.32535 35850 ft 492 kts 287°
2026-05-05 08:50 18.62643 80.25659 35841 ft 492 kts 287°
2026-05-05 08:50 18.64701 80.18778 35843 ft 492 kts 287°
2026-05-05 08:51 18.66757 80.11891 35840 ft 492 kts 287°
2026-05-05 08:51 18.68809 80.05005 35842 ft 492 kts 287°
2026-05-05 08:52 18.70858 79.98116 35842 ft 492 kts 287°
2026-05-05 08:52 18.72903 79.91233 35840 ft 492 kts 287°
2026-05-05 08:53 18.74949 79.84337 35839 ft 492 kts 287°
2026-05-05 08:53 18.76991 79.77444 35839 ft 492 kts 287°
2026-05-05 08:54 18.79031 79.70547 35840 ft 492 kts 287°
2026-05-05 08:54 18.81069 79.63647 35836 ft 492 kts 287°
2026-05-05 08:55 18.83105 79.56744 35841 ft 492 kts 287°
2026-05-05 08:55 18.85137 79.49845 35838 ft 492 kts 287°
2026-05-05 08:56 18.87150 79.42999 35838 ft 491 kts 287°
2026-05-05 08:56 18.89175 79.36103 35834 ft 492 kts 287°
2026-05-05 08:57 18.91199 79.29199 35834 ft 492 kts 287°
2026-05-05 08:57 18.93221 79.22289 35834 ft 492 kts 287°
2026-05-05 08:58 18.95243 79.15374 35834 ft 492 kts 287°
2026-05-05 08:58 18.97260 79.08460 35831 ft 492 kts 287°
2026-05-05 08:59 18.99258 79.01604 35832 ft 493 kts 287°
2026-05-05 08:59 19.01290 78.94618 35829 ft 493 kts 287°
2026-05-05 09:00 19.03302 78.87694 35829 ft 493 kts 287°
2026-05-05 09:00 19.05314 78.80759 35831 ft 493 kts 287°
2026-05-05 09:01 19.07322 78.73826 35831 ft 493 kts 287°
2026-05-05 09:01 19.09328 78.66891 35832 ft 494 kts 287°
2026-05-05 09:02 19.11332 78.59950 35834 ft 493 kts 287°
2026-05-05 09:02 19.13328 78.53027 35832 ft 492 kts 287°
2026-05-05 09:03 19.15318 78.46114 35830 ft 492 kts 287°
2026-05-05 09:03 19.17309 78.39188 35829 ft 491 kts 287°
2026-05-05 09:04 19.19281 78.32314 35827 ft 491 kts 287°
2026-05-05 09:04 19.21264 78.25393 35827 ft 492 kts 287°
2026-05-05 09:05 19.23245 78.18469 35831 ft 492 kts 287°
2026-05-05 09:05 19.25223 78.11543 35831 ft 492 kts 287°
2026-05-05 09:06 19.26922 78.04541 35828 ft 491 kts 283°
2026-05-05 09:06 19.28424 77.97485 35830 ft 492 kts 283°
2026-05-05 09:07 19.29959 77.90434 35829 ft 492 kts 283°
2026-05-05 09:07 19.31564 77.83395 35828 ft 492 kts 283°
2026-05-05 09:08 19.33189 77.76360 35832 ft 492 kts 283°
2026-05-05 09:08 19.34810 77.69317 35831 ft 492 kts 283°
2026-05-05 09:09 19.36424 77.62275 35832 ft 492 kts 283°
2026-05-05 09:09 19.38023 77.55279 35833 ft 492 kts 283°
2026-05-05 09:10 19.39627 77.48245 35833 ft 491 kts 283°
2026-05-05 09:10 19.41222 77.41240 35832 ft 491 kts 283°
2026-05-05 09:11 19.42814 77.34234 35835 ft 491 kts 283°
2026-05-05 09:11 19.44410 77.27198 35833 ft 491 kts 283°
2026-05-05 09:12 19.46003 77.20166 35834 ft 491 kts 283°
2026-05-05 09:12 19.47578 77.13133 35829 ft 490 kts 283°
2026-05-05 09:13 19.49150 77.06103 35827 ft 490 kts 283°
2026-05-05 09:13 19.50721 76.99071 35826 ft 490 kts 283°
2026-05-05 09:14 19.52292 76.92034 35833 ft 490 kts 283°
2026-05-05 09:14 19.53860 76.85000 35832 ft 490 kts 283°
2026-05-05 09:15 19.55441 76.77968 35837 ft 490 kts 283°
2026-05-05 09:15 19.57041 76.70941 35835 ft 490 kts 283°
2026-05-05 09:16 19.58639 76.63913 35836 ft 490 kts 283°
2026-05-05 09:16 19.60221 76.56925 35835 ft 490 kts 283°
2026-05-05 09:17 19.61809 76.49893 35835 ft 490 kts 283°
2026-05-05 09:17 19.63394 76.42863 35839 ft 489 kts 283°
2026-05-05 09:18 19.64972 76.35848 35836 ft 489 kts 283°
2026-05-05 09:18 19.66548 76.28823 35839 ft 489 kts 283°
2026-05-05 09:19 19.68121 76.21802 35837 ft 489 kts 283°
2026-05-05 09:19 19.69692 76.14781 35842 ft 489 kts 283°
2026-05-05 09:20 19.71260 76.07754 35837 ft 489 kts 283°
2026-05-05 09:20 19.72824 76.00733 35839 ft 489 kts 283°
2026-05-05 09:21 19.74388 75.93699 35836 ft 489 kts 283°
2026-05-05 09:21 19.75948 75.86668 35842 ft 489 kts 283°
2026-05-05 09:22 19.77497 75.79675 35839 ft 489 kts 283°
2026-05-05 09:22 19.79053 75.72637 35853 ft 490 kts 283°
2026-05-05 09:23 19.80355 75.66735 35860 ft 490 kts 283°
2026-05-05 09:23 19.81908 75.59686 35874 ft 490 kts 283°
2026-05-05 09:24 19.83457 75.52636 35879 ft 490 kts 283°
2026-05-05 09:24 19.85003 75.45590 35886 ft 490 kts 283°
2026-05-05 09:25 19.86542 75.38535 35890 ft 490 kts 282°
2026-05-05 09:25 19.87890 75.31447 35883 ft 489 kts 281°
2026-05-05 09:26 19.89154 75.24349 35877 ft 489 kts 281°
2026-05-05 09:26 19.90439 75.17256 35877 ft 489 kts 281°
2026-05-05 09:27 19.91745 75.10172 35868 ft 489 kts 281°
2026-05-05 09:27 19.93057 75.03081 35868 ft 489 kts 281°
2026-05-05 09:28 19.94366 74.95984 35867 ft 489 kts 281°
2026-05-05 09:28 19.95672 74.88885 35874 ft 489 kts 281°
2026-05-05 09:29 19.96975 74.81783 35874 ft 489 kts 281°
2026-05-05 09:29 19.98273 74.74685 35872 ft 489 kts 281°
2026-05-05 09:30 19.99563 74.67622 35871 ft 489 kts 281°
2026-05-05 09:30 20.00856 74.60519 35878 ft 489 kts 281°
2026-05-05 09:31 20.02147 74.53415 35879 ft 489 kts 281°
2026-05-05 09:31 20.03435 74.46309 35877 ft 489 kts 281°
2026-05-05 09:32 20.04720 74.39205 35879 ft 489 kts 281°
2026-05-05 09:32 20.06003 74.32094 35876 ft 490 kts 281°
2026-05-05 09:33 20.07284 74.24975 35879 ft 490 kts 281°
2026-05-05 09:33 20.08564 74.17850 35887 ft 490 kts 281°
2026-05-05 09:34 20.09840 74.10727 35886 ft 490 kts 281°
2026-05-05 09:34 20.11113 74.03601 35906 ft 490 kts 281°
2026-05-05 09:35 20.12382 73.96481 35911 ft 490 kts 281°
2026-05-05 09:35 20.14281 73.85799 35909 ft 490 kts 281°
2026-05-05 09:36 20.15541 73.78685 35912 ft 490 kts 281°
2026-05-05 09:36 20.16801 73.71560 35902 ft 490 kts 281°
2026-05-05 09:37 20.18057 73.64437 35893 ft 490 kts 281°
2026-05-05 09:37 20.19311 73.57308 35894 ft 490 kts 281°
2026-05-05 09:38 20.20563 73.50177 35888 ft 490 kts 281°
2026-05-05 09:38 20.21803 73.43090 35889 ft 490 kts 281°
2026-05-05 09:39 20.23047 73.35961 35881 ft 490 kts 281°
2026-05-05 09:39 20.24291 73.28826 35880 ft 490 kts 281°
2026-05-05 09:40 20.25552 73.21682 35876 ft 490 kts 281°
2026-05-05 09:40 20.26897 73.14569 35875 ft 490 kts 282°
2026-05-05 09:41 20.28255 73.07451 35869 ft 490 kts 282°
2026-05-05 09:41 20.29598 73.00327 35875 ft 490 kts 282°
2026-05-05 09:42 20.30927 72.93212 35866 ft 489 kts 282°
2026-05-05 09:42 20.32242 72.86150 35868 ft 489 kts 282°
2026-05-05 09:43 20.33562 72.79042 35858 ft 489 kts 282°
2026-05-05 09:43 20.34880 72.71930 35858 ft 489 kts 282°
2026-05-05 09:44 20.36195 72.64821 35857 ft 489 kts 282°
2026-05-05 09:44 20.37508 72.57706 35856 ft 489 kts 281°
2026-05-05 09:45 20.38819 72.50585 35847 ft 490 kts 281°
2026-05-05 09:45 20.40127 72.43459 35843 ft 490 kts 281°
2026-05-05 09:46 20.41432 72.36335 35841 ft 490 kts 281°
2026-05-05 09:46 20.42735 72.29204 35840 ft 490 kts 281°
2026-05-05 09:47 20.44035 72.22076 35836 ft 490 kts 281°
2026-05-05 09:47 20.45333 72.14939 35838 ft 490 kts 281°
2026-05-05 09:48 20.46628 72.07802 35830 ft 490 kts 281°
2026-05-05 09:48 20.47923 72.00654 35879 ft 492 kts 281°
2026-05-05 09:49 20.49218 71.93484 36041 ft 492 kts 281°
2026-05-05 09:49 20.50497 71.86327 36193 ft 492 kts 281°
2026-05-05 09:50 20.51774 71.79168 36355 ft 491 kts 281°
2026-05-05 09:50 20.53050 71.72009 36498 ft 491 kts 281°
2026-05-05 09:51 20.54324 71.64853 36623 ft 491 kts 281°
2026-05-05 09:51 20.55593 71.57704 36765 ft 490 kts 281°
2026-05-05 09:52 20.56860 71.50551 36856 ft 491 kts 281°
2026-05-05 09:52 20.58124 71.43396 36973 ft 490 kts 281°
2026-05-05 09:53 20.59384 71.36247 37103 ft 490 kts 281°
2026-05-05 09:53 20.60641 71.29094 37212 ft 490 kts 281°
2026-05-05 09:54 20.61895 71.21945 37317 ft 490 kts 281°
2026-05-05 09:54 20.63142 71.14811 37430 ft 490 kts 281°
2026-05-05 09:55 20.64388 71.07668 37529 ft 489 kts 281°
2026-05-05 09:55 20.65631 71.00526 37615 ft 489 kts 281°
2026-05-05 09:56 20.66872 70.93379 37716 ft 489 kts 281°
2026-05-05 09:56 20.68108 70.86236 37812 ft 489 kts 281°
2026-05-05 09:57 20.69342 70.79094 37836 ft 489 kts 281°
2026-05-05 09:57 20.70569 70.71971 37835 ft 486 kts 281°
2026-05-05 09:58 20.71788 70.64877 37835 ft 485 kts 281°
2026-05-05 09:58 20.73003 70.57783 37840 ft 485 kts 281°
2026-05-05 09:59 20.74216 70.50688 37838 ft 485 kts 281°
2026-05-05 09:59 20.75418 70.43638 37838 ft 486 kts 281°
2026-05-05 10:00 20.76625 70.36542 37832 ft 486 kts 281°
2026-05-05 10:00 20.77830 70.29442 37835 ft 486 kts 281°
2026-05-05 10:01 20.79030 70.22345 37833 ft 486 kts 281°
2026-05-05 10:01 20.80230 70.15234 37837 ft 486 kts 281°
2026-05-05 10:02 20.81428 70.08121 37840 ft 487 kts 281°
2026-05-05 10:02 20.82623 70.00998 37835 ft 487 kts 281°
2026-05-05 10:03 20.83815 69.93880 37835 ft 487 kts 281°
2026-05-05 10:03 20.85004 69.86760 37837 ft 487 kts 281°
2026-05-05 10:04 20.86192 69.79631 37834 ft 488 kts 281°
2026-05-05 10:04 20.87379 69.72487 37831 ft 488 kts 281°
2026-05-05 10:05 20.88562 69.65347 37832 ft 488 kts 280°
2026-05-05 10:05 20.89742 69.58200 37837 ft 488 kts 280°
2026-05-05 10:06 20.90920 69.51055 37829 ft 488 kts 280°
2026-05-05 10:06 20.92097 69.43895 37836 ft 490 kts 280°
2026-05-05 10:07 20.93276 69.36703 37881 ft 491 kts 280°
2026-05-05 10:07 20.94453 69.29503 37972 ft 491 kts 280°
2026-05-05 10:08 20.95627 69.22300 38055 ft 491 kts 280°
2026-05-05 10:08 20.96799 69.15093 38103 ft 492 kts 280°
2026-05-05 10:09 20.97523 69.09048 38137 ft 493 kts 275°
2026-05-05 10:09 20.97986 69.01735 38215 ft 493 kts 274°
2026-05-05 10:10 20.98376 68.94405 38291 ft 493 kts 274°
2026-05-05 10:10 20.98758 68.87086 38368 ft 493 kts 274°
2026-05-05 10:11 20.99145 68.79759 38395 ft 494 kts 274°
2026-05-05 10:11 20.99533 68.72432 38459 ft 494 kts 274°
2026-05-05 10:12 20.99919 68.65114 38522 ft 493 kts 274°
2026-05-05 10:12 21.00303 68.57782 38570 ft 493 kts 274°
2026-05-05 10:13 21.00682 68.50452 38616 ft 494 kts 274°
2026-05-05 10:13 21.01057 68.43160 38631 ft 494 kts 274°
2026-05-05 10:14 21.01431 68.35822 38672 ft 494 kts 274°
2026-05-05 10:14 21.01799 68.28523 38759 ft 493 kts 274°
2026-05-05 10:15 21.02165 68.21196 38808 ft 493 kts 274°
2026-05-05 10:15 21.02527 68.13913 38856 ft 493 kts 274°
2026-05-05 10:16 21.02888 68.06588 38880 ft 493 kts 274°
2026-05-05 10:16 21.03246 67.99253 38913 ft 493 kts 274°
2026-05-05 10:17 21.03600 67.91927 38959 ft 493 kts 274°
2026-05-05 10:17 21.03951 67.84603 38992 ft 493 kts 274°
2026-05-05 10:18 21.04299 67.77272 39016 ft 493 kts 274°
2026-05-05 10:18 21.04643 67.69945 39041 ft 493 kts 274°
2026-05-05 10:19 21.04985 67.62610 39082 ft 493 kts 274°
2026-05-05 10:19 21.05324 67.55283 39112 ft 493 kts 274°
2026-05-05 10:20 21.05660 67.47944 39115 ft 494 kts 273°
2026-05-05 10:20 21.05990 67.40651 39142 ft 494 kts 273°
2026-05-05 10:21 21.06320 67.33309 39184 ft 494 kts 273°
2026-05-05 10:21 21.06646 67.25968 39203 ft 494 kts 273°
2026-05-05 10:22 21.06970 67.18620 39224 ft 494 kts 273°
2026-05-05 10:22 21.07291 67.11262 39239 ft 494 kts 273°
2026-05-05 10:23 21.07608 67.03911 39269 ft 494 kts 273°
2026-05-05 10:23 21.07922 66.96558 39287 ft 494 kts 273°
2026-05-05 10:24 21.08234 66.89196 39318 ft 494 kts 273°
2026-05-05 10:24 21.08542 66.81840 39320 ft 495 kts 273°
2026-05-05 10:25 21.08847 66.74476 39334 ft 494 kts 273°
2026-05-05 10:25 21.09148 66.67127 39334 ft 493 kts 273°
2026-05-05 10:26 21.09445 66.59802 39330 ft 491 kts 273°
2026-05-05 10:26 21.09738 66.52498 39332 ft 491 kts 273°
2026-05-05 10:27 21.10029 66.45194 39331 ft 491 kts 273°
2026-05-05 10:27 21.10316 66.37882 39329 ft 491 kts 273°
2026-05-05 10:28 21.10600 66.30568 39328 ft 491 kts 273°
2026-05-05 10:28 21.10881 66.23255 39328 ft 491 kts 273°
2026-05-05 10:29 21.11157 66.15989 39331 ft 492 kts 273°
2026-05-05 10:29 21.11432 66.08670 39331 ft 492 kts 273°
2026-05-05 10:30 21.12036 66.01379 39330 ft 491 kts 282°
2026-05-05 10:30 21.14336 65.94522 39330 ft 490 kts 295°
2026-05-05 10:31 21.17355 65.87967 39332 ft 491 kts 297°
2026-05-05 10:31 21.20476 65.81446 39329 ft 492 kts 297°
2026-05-05 10:32 21.23582 65.74913 39329 ft 492 kts 296°
2026-05-05 10:32 21.26663 65.68369 39329 ft 491 kts 296°
2026-05-05 10:33 21.29730 65.61827 39321 ft 491 kts 296°
2026-05-05 10:33 21.32793 65.55282 39326 ft 491 kts 296°
2026-05-05 10:34 21.35857 65.48731 39322 ft 491 kts 296°
2026-05-05 10:34 21.38920 65.42176 39326 ft 491 kts 296°
2026-05-05 10:35 21.41980 65.35619 39325 ft 491 kts 296°
2026-05-05 10:35 21.45035 65.29064 39323 ft 491 kts 296°
2026-05-05 10:36 21.48093 65.22495 39329 ft 492 kts 296°
2026-05-05 10:36 21.51141 65.15939 39327 ft 491 kts 296°
2026-05-05 10:37 21.54186 65.09379 39328 ft 490 kts 296°
2026-05-05 10:37 21.57225 65.02826 39328 ft 490 kts 296°
2026-05-05 10:38 21.60262 64.96267 39326 ft 490 kts 296°
2026-05-05 10:38 21.63301 64.89698 39321 ft 491 kts 296°
2026-05-05 10:39 21.66338 64.83124 39325 ft 491 kts 296°
2026-05-05 10:39 21.69373 64.76546 39325 ft 491 kts 296°
2026-05-05 10:40 21.72386 64.70006 39325 ft 490 kts 296°
2026-05-05 10:40 21.75406 64.63444 39324 ft 489 kts 296°
2026-05-05 10:41 21.78421 64.56884 39322 ft 489 kts 296°
2026-05-05 10:41 21.81434 64.50319 39321 ft 489 kts 296°
2026-05-05 10:42 21.85947 64.40472 39322 ft 489 kts 296°
2026-05-05 10:43 21.88955 64.33898 39313 ft 489 kts 296°
2026-05-05 10:43 21.91960 64.27323 39324 ft 489 kts 296°
2026-05-05 10:44 21.94951 64.20768 39323 ft 487 kts 296°
2026-05-05 10:44 21.97930 64.14232 39305 ft 486 kts 295°
2026-05-05 10:45 22.00908 64.07691 39317 ft 486 kts 295°
2026-05-05 10:45 22.03880 64.01153 39321 ft 486 kts 295°
2026-05-05 10:46 22.06855 63.94600 39316 ft 487 kts 295°
2026-05-05 10:46 22.09830 63.88038 39319 ft 487 kts 295°
2026-05-05 10:47 22.12800 63.81479 39319 ft 487 kts 295°
2026-05-05 10:47 22.15768 63.74920 39317 ft 485 kts 295°
2026-05-05 10:48 22.18719 63.68385 39316 ft 485 kts 295°
2026-05-05 10:48 22.21668 63.61847 39319 ft 485 kts 295°
2026-05-05 10:49 22.24619 63.55295 39316 ft 485 kts 295°
2026-05-05 10:49 22.27546 63.48789 39319 ft 485 kts 295°
2026-05-05 10:50 22.30507 63.42199 39318 ft 485 kts 295°
2026-05-05 10:50 22.33436 63.35673 39320 ft 486 kts 295°
2026-05-05 10:51 22.36379 63.29105 39320 ft 485 kts 295°
2026-05-05 10:51 22.39315 63.22546 39319 ft 484 kts 295°
2026-05-05 10:52 22.42244 63.15993 39319 ft 484 kts 295°
2026-05-05 10:52 22.45158 63.09426 39315 ft 484 kts 293°
2026-05-05 10:53 22.47802 63.02734 39313 ft 484 kts 291°
2026-05-05 10:53 22.50347 62.95995 39317 ft 484 kts 291°
2026-05-05 10:54 22.52926 62.89268 39316 ft 484 kts 291°
2026-05-05 10:54 22.55537 62.82546 39318 ft 484 kts 291°
2026-05-05 10:55 22.58149 62.75840 39316 ft 483 kts 291°
2026-05-05 10:55 22.60753 62.69140 39301 ft 483 kts 291°
2026-05-05 10:56 22.63351 62.62442 39315 ft 483 kts 291°
2026-05-05 10:56 22.65947 62.55738 39315 ft 483 kts 291°
2026-05-05 10:57 22.68103 62.50162 39319 ft 483 kts 291°
2026-05-05 10:57 22.70695 62.43452 39317 ft 483 kts 291°
2026-05-05 10:58 22.73286 62.36731 39317 ft 483 kts 291°
2026-05-05 10:58 22.75875 62.30010 39316 ft 483 kts 291°
2026-05-05 10:59 22.78457 62.23293 39300 ft 483 kts 291°
2026-05-05 10:59 22.81040 62.16567 39313 ft 483 kts 291°
2026-05-05 11:00 22.83619 62.09838 39315 ft 484 kts 291°
2026-05-05 11:00 22.86199 62.03099 39316 ft 484 kts 291°
2026-05-05 11:01 22.88773 61.96365 39317 ft 484 kts 291°
2026-05-05 11:01 22.91347 61.89621 39310 ft 484 kts 291°
2026-05-05 11:02 22.93920 61.82870 39316 ft 484 kts 291°
2026-05-05 11:02 22.96482 61.76140 39311 ft 482 kts 291°
2026-05-05 11:03 22.99033 61.69426 39311 ft 481 kts 291°
2026-05-05 11:03 23.01578 61.62716 39305 ft 480 kts 291°
2026-05-05 11:04 23.04117 61.56015 39306 ft 480 kts 291°
2026-05-05 11:04 23.06641 61.49343 39305 ft 480 kts 291°
2026-05-05 11:05 23.09177 61.42629 39299 ft 480 kts 291°
2026-05-05 11:05 23.11708 61.35918 39302 ft 481 kts 291°
2026-05-05 11:06 23.14236 61.29206 39309 ft 479 kts 290°
2026-05-05 11:06 23.16753 61.22514 39293 ft 478 kts 290°
2026-05-05 11:07 23.19260 61.15837 39295 ft 477 kts 290°
2026-05-05 11:07 23.21766 61.09151 39307 ft 477 kts 290°
2026-05-05 11:08 23.24270 61.02463 39303 ft 477 kts 290°
2026-05-05 11:08 23.26770 60.95774 39298 ft 478 kts 290°
2026-05-05 11:09 23.29271 60.89073 39301 ft 478 kts 290°
2026-05-05 11:09 23.31769 60.82370 39292 ft 477 kts 290°
2026-05-05 11:10 23.34255 60.75691 39306 ft 476 kts 290°
2026-05-05 11:10 23.36735 60.69013 39291 ft 476 kts 290°
2026-05-05 11:11 23.38520 60.62113 39302 ft 474 kts 277°
2026-05-05 11:11 23.39327 60.55003 39286 ft 474 kts 275°
2026-05-05 11:12 23.39980 60.47860 39287 ft 474 kts 275°
2026-05-05 11:12 23.40613 60.40772 39293 ft 474 kts 275°
2026-05-05 11:13 23.41267 60.33620 39280 ft 475 kts 275°
2026-05-05 11:13 23.41928 60.26468 39279 ft 475 kts 275°
2026-05-05 11:14 23.42588 60.19311 39283 ft 475 kts 275°
2026-05-05 11:14 23.43243 60.12164 39289 ft 475 kts 275°
2026-05-05 11:15 23.43894 60.05020 39280 ft 474 kts 275°
2026-05-05 11:15 23.44541 59.97873 39277 ft 474 kts 275°
2026-05-05 11:16 23.45185 59.90732 39270 ft 473 kts 275°
2026-05-05 11:16 23.45825 59.83601 39282 ft 474 kts 275°
2026-05-05 11:17 23.46462 59.76458 39266 ft 474 kts 275°
2026-05-05 11:17 23.47096 59.69309 39270 ft 474 kts 275°
2026-05-05 11:18 23.47723 59.62210 39275 ft 474 kts 275°
2026-05-05 11:18 23.48351 59.55062 39262 ft 474 kts 275°
2026-05-05 11:19 23.48975 59.47918 39263 ft 474 kts 275°
2026-05-05 11:19 23.49596 59.40776 39267 ft 474 kts 275°
2026-05-05 11:20 23.50214 59.33629 39258 ft 474 kts 275°
2026-05-05 11:20 23.50828 59.26484 39251 ft 474 kts 275°
2026-05-05 11:21 23.51440 59.19336 39251 ft 474 kts 275°
2026-05-05 11:21 23.52046 59.12203 39253 ft 473 kts 275°
2026-05-05 11:22 23.52650 59.05070 39245 ft 472 kts 275°
2026-05-05 11:22 23.53249 58.97942 39245 ft 472 kts 274°
2026-05-05 11:23 23.53846 58.90812 39242 ft 472 kts 274°
2026-05-05 11:23 23.54439 58.83686 39246 ft 472 kts 274°
2026-05-05 11:24 23.55029 58.76555 39245 ft 472 kts 274°
2026-05-05 11:24 23.55615 58.69428 39239 ft 472 kts 274°
2026-05-05 11:25 23.56195 58.62343 39235 ft 472 kts 274°
2026-05-05 11:25 23.56779 58.55165 39230 ft 472 kts 274°
2026-05-05 11:26 23.57354 58.48037 39223 ft 472 kts 274°
2026-05-05 11:26 23.57925 58.40946 39227 ft 473 kts 274°
2026-05-05 11:27 23.58496 58.33805 39213 ft 473 kts 274°
2026-05-05 11:27 23.58870 58.26606 39228 ft 472 kts 267°
2026-05-05 11:28 23.58003 58.19543 39211 ft 470 kts 260°
2026-05-05 11:28 23.56794 58.12581 39228 ft 471 kts 259°
2026-05-05 11:29 23.55523 58.05580 39244 ft 471 kts 259°
2026-05-05 11:29 23.54263 57.98580 39260 ft 471 kts 259°
2026-05-05 11:30 23.53012 57.91572 39270 ft 471 kts 259°
2026-05-05 11:30 23.51763 57.84572 39277 ft 471 kts 259°
2026-05-05 11:31 23.50511 57.77571 39303 ft 471 kts 259°
2026-05-05 11:31 23.49256 57.70572 39305 ft 471 kts 259°
2026-05-05 11:32 23.47996 57.63571 39304 ft 471 kts 259°
2026-05-05 11:32 23.46733 57.56567 39334 ft 471 kts 259°
2026-05-05 11:33 23.45465 57.49560 39327 ft 471 kts 259°
2026-05-05 11:33 23.44195 57.42560 39334 ft 471 kts 259°
2026-05-05 11:34 23.42930 57.35597 39351 ft 471 kts 259°
2026-05-05 11:34 23.41647 57.28563 39333 ft 471 kts 259°
2026-05-05 11:35 23.40369 57.21574 39353 ft 471 kts 259°
2026-05-05 11:35 23.39098 57.14632 39338 ft 471 kts 259°
2026-05-05 11:36 23.37890 57.07627 39345 ft 471 kts 263°
2026-05-05 11:36 23.37567 57.00508 39342 ft 471 kts 268°
2026-05-05 11:37 23.37484 56.93380 39343 ft 471 kts 269°
2026-05-05 11:37 23.37437 56.86236 39342 ft 472 kts 269°
2026-05-05 11:38 23.37378 56.79105 39325 ft 471 kts 269°
2026-05-05 11:38 23.37305 56.71971 39322 ft 471 kts 268°
2026-05-05 11:39 23.37225 56.64839 39323 ft 471 kts 268°
2026-05-05 11:39 23.37142 56.57701 39317 ft 471 kts 268°
2026-05-05 11:40 23.37057 56.50566 39312 ft 472 kts 268°
2026-05-05 11:40 23.36967 56.43432 39311 ft 471 kts 268°
2026-05-05 11:41 23.36876 56.36300 39297 ft 471 kts 268°
2026-05-05 11:41 23.36781 56.29173 39290 ft 471 kts 268°
2026-05-05 11:42 23.36683 56.22038 39290 ft 472 kts 268°
2026-05-05 11:42 23.36582 56.14902 39303 ft 471 kts 268°
2026-05-05 11:43 23.36477 56.07790 39286 ft 469 kts 268°
2026-05-05 11:43 23.36370 56.00698 39286 ft 469 kts 268°
2026-05-05 11:44 23.36259 55.93596 39279 ft 469 kts 268°
2026-05-05 11:44 23.36145 55.86506 39270 ft 469 kts 268°
2026-05-05 11:45 23.36048 55.80601 39266 ft 469 kts 268°
2026-05-05 11:45 23.35929 55.73510 39268 ft 469 kts 268°
2026-05-05 11:46 23.35806 55.66404 39265 ft 469 kts 268°
2026-05-05 11:46 23.35679 55.59301 39261 ft 470 kts 268°
2026-05-05 11:47 23.35550 55.52196 39256 ft 470 kts 268°
2026-05-05 11:47 23.35418 55.45085 39256 ft 470 kts 268°
2026-05-05 11:48 23.35212 55.34418 39249 ft 470 kts 268°
2026-05-05 11:48 23.35072 55.27349 39253 ft 470 kts 268°
2026-05-05 11:49 23.34928 55.20237 39243 ft 470 kts 268°
2026-05-05 11:49 23.34781 55.13124 39238 ft 470 kts 268°
2026-05-05 11:50 23.34630 55.06009 39239 ft 470 kts 268°
2026-05-05 11:50 23.34477 54.98909 39230 ft 469 kts 268°
2026-05-05 11:51 23.34321 54.91829 39218 ft 468 kts 268°
2026-05-05 11:51 23.34164 54.84831 39210 ft 468 kts 268°
2026-05-05 11:52 23.34002 54.77764 39215 ft 468 kts 267°
2026-05-05 11:52 23.33836 54.70697 39211 ft 468 kts 267°
2026-05-05 11:53 23.33667 54.63622 39213 ft 468 kts 267°
2026-05-05 11:53 23.33495 54.56546 39213 ft 468 kts 267°
2026-05-05 11:54 23.33320 54.49468 39211 ft 468 kts 267°
2026-05-05 11:54 23.33141 54.42377 39216 ft 469 kts 267°
2026-05-05 11:55 23.32959 54.35282 39215 ft 469 kts 267°
2026-05-05 11:55 23.32774 54.28187 39211 ft 469 kts 267°
2026-05-05 11:56 23.32586 54.21098 39212 ft 469 kts 267°
2026-05-05 11:56 23.32394 54.14006 39217 ft 469 kts 267°
2026-05-05 11:57 23.32200 54.06916 39214 ft 469 kts 267°
2026-05-05 11:57 23.32002 53.99825 39217 ft 469 kts 267°
2026-05-05 11:58 23.31801 53.92730 39218 ft 469 kts 267°
2026-05-05 11:58 23.31596 53.85640 39219 ft 468 kts 267°
2026-05-05 11:59 23.31391 53.78603 39222 ft 468 kts 267°
2026-05-05 11:59 23.31180 53.71507 39270 ft 470 kts 267°
2026-05-05 12:00 23.30966 53.64408 39341 ft 470 kts 267°
2026-05-05 12:00 23.30749 53.57305 39434 ft 469 kts 267°
2026-05-05 12:01 23.30528 53.50212 39502 ft 469 kts 267°
2026-05-05 12:01 23.30304 53.43118 39576 ft 469 kts 266°
2026-05-05 12:02 23.30078 53.36020 39654 ft 469 kts 266°
2026-05-05 12:02 23.29848 53.28942 39720 ft 469 kts 266°
2026-05-05 12:03 23.29616 53.21850 39782 ft 469 kts 266°
2026-05-05 12:03 23.29380 53.14764 39825 ft 469 kts 266°
2026-05-05 12:04 23.29140 53.07671 39882 ft 469 kts 266°
2026-05-05 12:04 23.28897 53.00582 39950 ft 469 kts 266°
2026-05-05 12:05 23.28652 52.93495 39971 ft 469 kts 266°
2026-05-05 12:05 23.28403 52.86410 40024 ft 469 kts 266°
2026-05-05 12:06 23.28151 52.79325 40064 ft 469 kts 266°
2026-05-05 12:06 23.27895 52.72233 40090 ft 469 kts 266°
2026-05-05 12:07 23.27637 52.65142 40125 ft 469 kts 266°
2026-05-05 12:07 23.27375 52.58056 40165 ft 469 kts 266°
2026-05-05 12:08 23.27110 52.50970 40198 ft 469 kts 266°
2026-05-05 12:08 23.26844 52.43921 40206 ft 470 kts 266°
2026-05-05 12:09 23.26572 52.36823 40224 ft 469 kts 266°
2026-05-05 12:09 23.26299 52.29754 40224 ft 467 kts 266°
2026-05-05 12:10 23.26022 52.22695 40224 ft 467 kts 266°
2026-05-05 12:10 23.25742 52.15632 40225 ft 467 kts 266°
2026-05-05 12:11 23.25460 52.08580 40222 ft 467 kts 266°
2026-05-05 12:11 23.25174 52.01519 40220 ft 467 kts 266°
2026-05-05 12:12 23.24884 51.94455 40221 ft 468 kts 266°
2026-05-05 12:12 23.24592 51.87387 40222 ft 468 kts 266°
2026-05-05 12:13 23.24296 51.80322 40219 ft 468 kts 266°
2026-05-05 12:13 23.23997 51.73255 40221 ft 467 kts 266°
2026-05-05 12:14 23.23696 51.66209 40221 ft 466 kts 266°
2026-05-05 12:14 23.23392 51.59168 40220 ft 466 kts 266°
2026-05-05 12:15 23.23084 51.52128 40225 ft 466 kts 265°
2026-05-05 12:15 23.22774 51.45090 40222 ft 466 kts 266°
2026-05-05 12:16 23.22365 51.38057 40219 ft 466 kts 264°
2026-05-05 12:16 23.21878 51.31026 40218 ft 466 kts 264°
2026-05-05 12:17 23.21399 51.23996 40225 ft 466 kts 264°
2026-05-05 12:17 23.20933 51.16965 40223 ft 466 kts 264°
2026-05-05 12:18 23.20471 51.09938 40218 ft 466 kts 264°
2026-05-05 12:18 23.20007 51.02926 40221 ft 466 kts 264°
2026-05-05 12:19 23.19537 50.95899 40220 ft 466 kts 264°
2026-05-05 12:19 23.19064 50.88871 40224 ft 466 kts 264°
2026-05-05 12:20 23.18588 50.81848 40221 ft 467 kts 264°
2026-05-05 12:20 23.18109 50.74814 40218 ft 467 kts 264°
2026-05-05 12:21 23.17629 50.67824 40228 ft 467 kts 264°
2026-05-05 12:21 23.17145 50.60812 40219 ft 465 kts 264°
2026-05-05 12:22 23.16658 50.53809 40219 ft 465 kts 264°
2026-05-05 12:22 23.16168 50.46805 40222 ft 465 kts 264°
2026-05-05 12:23 23.15674 50.39803 40225 ft 465 kts 264°
2026-05-05 12:23 23.15178 50.32797 40217 ft 465 kts 264°
2026-05-05 12:24 23.14680 50.25821 40219 ft 465 kts 264°
2026-05-05 12:24 23.14180 50.18852 40221 ft 465 kts 264°
2026-05-05 12:25 23.13674 50.11840 40213 ft 465 kts 264°
2026-05-05 12:25 23.13166 50.04853 40213 ft 465 kts 264°
2026-05-05 12:26 23.12656 49.97877 40219 ft 465 kts 264°
2026-05-05 12:26 23.12140 49.90865 40216 ft 465 kts 264°
2026-05-05 12:27 23.11622 49.83864 40213 ft 465 kts 264°
2026-05-05 12:27 23.11101 49.76856 40213 ft 465 kts 264°
2026-05-05 12:28 23.10576 49.69852 40210 ft 466 kts 264°
2026-05-05 12:28 23.10047 49.62836 40211 ft 466 kts 264°
2026-05-05 12:29 23.09517 49.55839 40211 ft 464 kts 264°
2026-05-05 12:29 23.08985 49.48856 40207 ft 464 kts 263°
2026-05-05 12:30 23.08450 49.41887 40210 ft 464 kts 263°
2026-05-05 12:30 23.07912 49.34905 40211 ft 464 kts 263°
2026-05-05 12:31 23.07374 49.27969 40210 ft 464 kts 263°
2026-05-05 12:31 23.06829 49.20989 40208 ft 464 kts 263°
2026-05-05 12:32 23.06281 49.14003 40208 ft 464 kts 263°
2026-05-05 12:32 23.05731 49.07028 40209 ft 464 kts 263°
2026-05-05 12:33 23.05270 49.01220 40211 ft 465 kts 263°
2026-05-05 12:33 23.04713 48.94230 40211 ft 465 kts 263°
2026-05-05 12:34 23.04154 48.87264 40208 ft 465 kts 263°
2026-05-05 12:34 23.03594 48.80317 40214 ft 465 kts 263°
2026-05-05 12:35 23.03028 48.73325 40216 ft 465 kts 263°
2026-05-05 12:35 23.02458 48.66339 40216 ft 465 kts 263°
2026-05-05 12:36 23.01886 48.59352 40216 ft 465 kts 263°
2026-05-05 12:36 23.01310 48.52364 40221 ft 463 kts 263°
2026-05-05 12:37 23.00735 48.45414 40219 ft 462 kts 263°
2026-05-05 12:37 23.00156 48.38468 40219 ft 462 kts 263°
2026-05-05 12:38 22.99574 48.31525 40219 ft 462 kts 263°
2026-05-05 12:38 22.98989 48.24577 40219 ft 462 kts 263°
2026-05-05 12:39 22.98402 48.17633 40222 ft 462 kts 263°
2026-05-05 12:39 22.97812 48.10696 40221 ft 462 kts 263°
2026-05-05 12:40 22.97219 48.03763 40224 ft 461 kts 263°
2026-05-05 12:40 22.96624 47.96833 40230 ft 461 kts 263°
2026-05-05 12:41 22.96025 47.89900 40233 ft 461 kts 263°
2026-05-05 12:41 22.95423 47.82965 40233 ft 461 kts 263°
2026-05-05 12:42 22.94819 47.76049 40238 ft 461 kts 263°
2026-05-05 12:42 22.94211 47.69120 40246 ft 461 kts 263°
2026-05-05 12:43 22.93601 47.62195 40250 ft 461 kts 263°
2026-05-05 12:43 22.92992 47.55315 40249 ft 461 kts 263°
2026-05-05 12:44 22.92378 47.48420 40256 ft 458 kts 263°
2026-05-05 12:44 22.91763 47.41547 40263 ft 457 kts 263°
2026-05-05 12:45 22.91146 47.34686 40264 ft 457 kts 262°
2026-05-05 12:45 22.90526 47.27829 40268 ft 457 kts 262°
2026-05-05 12:46 22.89904 47.20970 40270 ft 457 kts 262°
2026-05-05 12:46 22.89279 47.14121 40278 ft 457 kts 262°
2026-05-05 12:47 22.88650 47.07264 40276 ft 457 kts 262°
2026-05-05 12:47 22.88019 47.00409 40280 ft 457 kts 262°
2026-05-05 12:48 22.87385 46.93550 40282 ft 457 kts 262°
2026-05-05 12:48 22.86748 46.86697 40282 ft 456 kts 262°
2026-05-05 12:49 22.86108 46.79854 40281 ft 456 kts 262°
2026-05-05 12:49 22.85466 46.73012 40290 ft 456 kts 262°
2026-05-05 12:50 22.84821 46.66169 40291 ft 456 kts 262°
2026-05-05 12:50 22.84177 46.59374 40293 ft 456 kts 262°
2026-05-05 12:51 22.83527 46.52536 40302 ft 454 kts 262°
2026-05-05 12:51 22.82878 46.45735 40297 ft 453 kts 262°
2026-05-05 12:52 22.82435 46.38915 40300 ft 455 kts 269°
2026-05-05 12:52 22.82802 46.32056 40307 ft 456 kts 271°
2026-05-05 12:53 22.83310 46.25195 40303 ft 457 kts 272°
2026-05-05 12:53 22.83835 46.18338 40308 ft 457 kts 272°
2026-05-05 12:54 22.84596 46.08041 40293 ft 457 kts 271°
2026-05-05 12:55 22.85093 46.01176 40300 ft 457 kts 271°
2026-05-05 12:55 22.85587 45.94311 40296 ft 457 kts 271°
2026-05-05 12:56 22.86075 45.87491 40293 ft 456 kts 271°
2026-05-05 12:56 22.86561 45.80644 40293 ft 455 kts 271°
2026-05-05 12:57 22.87045 45.73796 40289 ft 456 kts 271°
2026-05-05 12:57 22.87526 45.66936 40296 ft 456 kts 271°
2026-05-05 12:58 22.88005 45.60075 40294 ft 456 kts 271°
2026-05-05 12:58 22.88481 45.53209 40287 ft 457 kts 271°
2026-05-05 12:59 22.88955 45.46339 40297 ft 457 kts 271°
2026-05-05 12:59 22.89423 45.39489 40302 ft 457 kts 271°
2026-05-05 13:00 22.90122 45.29213 40300 ft 454 kts 271°
2026-05-05 13:01 22.91656 45.06325 40312 ft 454 kts 271°
2026-05-05 13:01 22.92274 44.96948 40320 ft 455 kts 271°
2026-05-05 13:02 22.92716 44.90103 40310 ft 455 kts 271°
2026-05-05 13:02 22.93156 44.83256 40310 ft 455 kts 271°
2026-05-05 13:03 22.93598 44.76405 40318 ft 455 kts 271°
2026-05-05 13:03 22.94036 44.69568 40319 ft 455 kts 271°
2026-05-05 13:04 22.94057 44.64467 40314 ft 453 kts 265°
2026-05-05 13:04 22.93807 44.57648 40314 ft 452 kts 264°
2026-05-05 13:05 22.93506 44.50835 40318 ft 452 kts 264°
2026-05-05 13:05 22.93202 44.44102 40322 ft 451 kts 264°
2026-05-05 13:06 22.92897 44.37306 40335 ft 451 kts 264°
2026-05-05 13:06 22.92595 44.30566 40322 ft 450 kts 264°
2026-05-05 13:07 22.92288 44.23784 40322 ft 450 kts 264°
2026-05-05 13:07 22.91979 44.17005 40334 ft 450 kts 264°
2026-05-05 13:08 22.91666 44.10235 40340 ft 450 kts 264°
2026-05-05 13:08 22.91351 44.03463 40344 ft 450 kts 264°
2026-05-05 13:09 22.91035 43.96698 40345 ft 448 kts 264°
2026-05-05 13:09 22.90714 43.89939 40327 ft 451 kts 264°
2026-05-05 13:10 22.90388 43.83134 40353 ft 452 kts 264°
2026-05-05 13:10 22.90062 43.76343 40474 ft 451 kts 264°
2026-05-05 13:11 22.89731 43.69548 40531 ft 451 kts 264°
2026-05-05 13:11 22.89399 43.62793 40592 ft 451 kts 264°
2026-05-05 13:12 22.89064 43.56012 40695 ft 450 kts 264°
2026-05-05 13:12 22.88726 43.49235 40745 ft 450 kts 264°
2026-05-05 13:13 22.88388 43.42511 40796 ft 450 kts 264°
2026-05-05 13:13 22.88044 43.35742 40859 ft 450 kts 264°
2026-05-05 13:14 22.87697 43.28975 40881 ft 449 kts 264°
2026-05-05 13:14 22.87349 43.22224 40904 ft 448 kts 264°
2026-05-05 13:15 22.86998 43.15485 40893 ft 447 kts 264°
2026-05-05 13:15 22.86645 43.08758 40895 ft 447 kts 264°
2026-05-05 13:16 22.86289 43.02033 40915 ft 447 kts 264°
2026-05-05 13:16 22.85934 42.95370 40900 ft 446 kts 264°
2026-05-05 13:17 22.85574 42.88661 40892 ft 445 kts 264°
2026-05-05 13:17 22.85211 42.81957 40897 ft 445 kts 263°
2026-05-05 13:18 22.84845 42.75259 40897 ft 445 kts 263°
2026-05-05 13:18 22.84476 42.68551 40883 ft 446 kts 263°
2026-05-05 13:19 22.84104 42.61848 40895 ft 448 kts 263°
2026-05-05 13:19 22.83728 42.55112 40903 ft 448 kts 263°
2026-05-05 13:20 22.83350 42.48380 40904 ft 447 kts 263°
2026-05-05 13:20 22.82969 42.41651 40901 ft 447 kts 263°
2026-05-05 13:21 22.82586 42.34938 40904 ft 446 kts 263°
2026-05-05 13:21 22.82265 42.29368 40903 ft 445 kts 263°
2026-05-05 13:22 22.81814 42.21579 40905 ft 445 kts 263°
2026-05-05 13:22 22.81425 42.14893 40902 ft 444 kts 263°
2026-05-05 13:23 22.81096 42.09309 40902 ft 443 kts 263°
2026-05-05 13:23 22.80701 42.02641 40901 ft 445 kts 263°
2026-05-05 13:24 22.80301 41.95938 40898 ft 446 kts 263°
2026-05-05 13:24 22.79901 41.89258 40897 ft 445 kts 263°
2026-05-05 13:25 22.79357 41.82600 40892 ft 444 kts 261°
2026-05-05 13:25 22.78678 41.76034 40900 ft 443 kts 261°
2026-05-05 13:26 22.77998 41.69345 40889 ft 441 kts 261°
2026-05-05 13:26 22.77352 41.62738 40889 ft 441 kts 261°
2026-05-05 13:27 22.76718 41.56174 40907 ft 441 kts 261°
2026-05-05 13:27 22.76081 41.49589 40890 ft 439 kts 261°
2026-05-05 13:28 22.75440 41.43010 40884 ft 440 kts 261°
2026-05-05 13:28 22.74792 41.36404 40884 ft 441 kts 261°
2026-05-05 13:29 22.73684 41.29906 40881 ft 437 kts 250°
2026-05-05 13:29 22.71605 41.23725 40879 ft 436 kts 247°
2026-05-05 13:30 22.69364 41.17625 40879 ft 436 kts 247°
2026-05-05 13:30 22.67101 41.11528 40879 ft 436 kts 247°
2026-05-05 13:31 22.64849 41.05429 40859 ft 436 kts 247°
2026-05-05 13:31 22.62597 40.99310 40878 ft 439 kts 247°
2026-05-05 13:32 22.60341 40.93178 40874 ft 437 kts 247°
2026-05-05 13:32 22.59225 40.90146 40719 ft 430 kts 247°
2026-05-05 13:32 22.58125 40.87159 40476 ft 425 kts 247°
2026-05-05 13:33 22.57046 40.84235 40232 ft 424 kts 247°
2026-05-05 13:33 22.55955 40.81280 39997 ft 424 kts 247°
2026-05-05 13:33 22.54859 40.78317 39745 ft 423 kts 247°
2026-05-05 13:33 22.53772 40.75375 39150 ft 422 kts 247°
2026-05-05 13:34 22.52678 40.72420 38477 ft 423 kts 247°
2026-05-05 13:34 22.51587 40.69475 37766 ft 422 kts 247°
2026-05-05 13:34 22.50499 40.66536 37145 ft 420 kts 248°
2026-05-05 13:34 22.49414 40.63609 36535 ft 419 kts 248°
2026-05-05 13:35 22.48332 40.60690 35908 ft 418 kts 248°
2026-05-05 13:35 22.47249 40.57774 35285 ft 418 kts 248°
2026-05-05 13:35 22.46165 40.54856 34625 ft 418 kts 248°
2026-05-05 13:35 22.45080 40.51935 33932 ft 420 kts 248°
2026-05-05 13:36 22.43986 40.48994 33113 ft 422 kts 248°
2026-05-05 13:36 22.42888 40.46041 32354 ft 424 kts 247°
2026-05-05 13:36 22.41785 40.43080 31568 ft 426 kts 247°
2026-05-05 13:36 22.40677 40.40106 30776 ft 428 kts 247°
2026-05-05 13:37 22.39562 40.37114 29981 ft 431 kts 247°
2026-05-05 13:37 22.38440 40.34109 29078 ft 432 kts 247°
2026-05-05 13:37 22.37320 40.31107 28416 ft 429 kts 247°
2026-05-05 13:37 22.36207 40.28128 27803 ft 426 kts 247°
2026-05-05 13:38 22.35101 40.25168 27180 ft 424 kts 247°
2026-05-05 13:38 22.33999 40.22221 26568 ft 422 kts 247°
2026-05-05 13:38 22.32900 40.19287 25953 ft 420 kts 247°
2026-05-05 13:38 22.31848 40.16476 25366 ft 418 kts 247°
2026-05-05 13:39 22.30729 40.13490 24740 ft 416 kts 247°
2026-05-05 13:39 22.29650 40.10612 24241 ft 412 kts 247°
2026-05-05 13:39 22.28595 40.07799 24109 ft 398 kts 247°
2026-05-05 13:39 22.27582 40.05099 23992 ft 384 kts 247°
2026-05-05 13:40 22.26542 40.02497 23847 ft 371 kts 243°
2026-05-05 13:40 22.25253 40.00135 23662 ft 360 kts 237°
2026-05-05 13:40 22.23903 39.97914 23515 ft 349 kts 237°
2026-05-05 13:40 22.22583 39.95764 23336 ft 338 kts 237°
2026-05-05 13:41 22.21306 39.93682 23184 ft 327 kts 237°
2026-05-05 13:41 22.20069 39.91665 23013 ft 317 kts 237°
2026-05-05 13:41 22.18874 39.89711 22890 ft 307 kts 237°
2026-05-05 13:41 22.17705 39.87798 22514 ft 304 kts 236°
2026-05-05 13:42 22.16541 39.85900 22101 ft 302 kts 236°
2026-05-05 13:42 22.15387 39.84015 21718 ft 301 kts 236°
2026-05-05 13:42 22.14239 39.82137 21347 ft 300 kts 236°
2026-05-05 13:42 22.13094 39.80266 20977 ft 298 kts 236°
2026-05-05 13:43 22.11963 39.78417 20603 ft 297 kts 236°
2026-05-05 13:43 22.10830 39.76566 20227 ft 295 kts 236°
2026-05-05 13:43 22.09705 39.74730 19868 ft 293 kts 236°
2026-05-05 13:43 22.08584 39.72899 19494 ft 292 kts 236°
2026-05-05 13:44 22.07468 39.71079 19145 ft 291 kts 235°
2026-05-05 13:44 22.06355 39.69263 18797 ft 290 kts 235°
2026-05-05 13:44 22.05244 39.67453 18429 ft 288 kts 235°
2026-05-05 13:44 22.04141 39.65655 18054 ft 287 kts 235°
2026-05-05 13:45 22.03045 39.63871 17676 ft 286 kts 235°
2026-05-05 13:45 22.01967 39.62116 17324 ft 285 kts 235°
2026-05-05 13:45 22.00876 39.60341 16972 ft 283 kts 235°
2026-05-05 13:45 21.99777 39.58553 16619 ft 281 kts 235°
2026-05-05 13:46 21.98698 39.56800 16266 ft 280 kts 235°
2026-05-05 13:46 21.97628 39.55060 15922 ft 278 kts 235°
2026-05-05 13:46 21.96577 39.53351 15583 ft 276 kts 235°
2026-05-05 13:46 21.95520 39.51633 15241 ft 275 kts 236°
2026-05-05 13:47 21.94480 39.49899 14963 ft 280 kts 238°
2026-05-05 13:47 21.93550 39.47991 14791 ft 293 kts 243°
2026-05-05 13:47 21.92671 39.46022 14453 ft 291 kts 243°
2026-05-05 13:47 21.91796 39.44043 13933 ft 294 kts 243°
2026-05-05 13:48 21.90921 39.42069 13502 ft 293 kts 243°
2026-05-05 13:48 21.90045 39.40098 13010 ft 292 kts 243°
2026-05-05 13:48 21.89167 39.38124 12536 ft 292 kts 243°
2026-05-05 13:48 21.88291 39.36160 12105 ft 290 kts 243°
2026-05-05 13:49 21.87422 39.34209 11727 ft 287 kts 243°
2026-05-05 13:49 21.86566 39.32287 11325 ft 285 kts 243°
2026-05-05 13:49 21.85726 39.30407 10932 ft 283 kts 243°
2026-05-05 13:49 21.85429 39.29740 10839 ft 280 kts 243°
2026-05-05 13:51 21.79420 39.22694 8763 ft 246 kts 168°
2026-05-05 13:51 21.77785 39.23256 8345 ft 247 kts 161°
2026-05-05 13:51 21.76180 39.23913 7990 ft 246 kts 162°
2026-05-05 13:51 21.74578 39.24570 7646 ft 246 kts 162°
2026-05-05 13:52 21.72973 39.25214 7279 ft 247 kts 163°
2026-05-05 13:52 21.71357 39.25855 6935 ft 248 kts 162°
2026-05-05 13:52 21.69194 39.26722 6444 ft 247 kts 162°
2026-05-05 13:52 21.68129 39.27144 6218 ft 248 kts 163°
2026-05-05 13:53 21.66497 39.27787 5854 ft 250 kts 161°
2026-05-05 13:53 21.64870 39.28433 5503 ft 248 kts 161°
2026-05-05 13:53 21.63257 39.29072 5137 ft 246 kts 161°
2026-05-05 13:53 21.61655 39.29708 4780 ft 244 kts 160°
2026-05-05 13:54 21.60064 39.30332 4407 ft 243 kts 160°
2026-05-05 13:54 21.58492 39.30945 4066 ft 240 kts 160°
2026-05-05 13:54 21.56925 39.31557 3726 ft 240 kts 160°
2026-05-05 13:54 21.55353 39.32173 3383 ft 241 kts 160°
2026-05-05 13:55 21.53770 39.32790 3032 ft 243 kts 159°
2026-05-05 13:55 21.52170 39.33422 2919 ft 247 kts 159°
2026-05-05 13:55 21.50547 39.34056 2979 ft 254 kts 158°
2026-05-05 13:55 21.48901 39.34700 2989 ft 250 kts 158°
2026-05-05 13:56 21.47263 39.35332 2999 ft 249 kts 159°
2026-05-05 13:56 21.45648 39.35959 2996 ft 246 kts 159°
2026-05-05 13:56 21.44040 39.36596 2994 ft 249 kts 158°
2026-05-05 13:56 21.42398 39.37246 2998 ft 253 kts 158°
2026-05-05 13:57 21.40743 39.37896 2997 ft 253 kts 159°
2026-05-05 13:57 21.39101 39.38538 2994 ft 251 kts 159°
2026-05-05 13:57 21.37450 39.39176 2999 ft 253 kts 160°
2026-05-05 13:57 21.35664 39.39352 3004 ft 266 kts 192°
2026-05-05 13:58 21.34108 39.38489 2974 ft 245 kts 230°
2026-05-05 13:58 21.33333 39.36976 2998 ft 228 kts 255°
2026-05-05 13:58 21.32858 39.35351 2997 ft 229 kts 257°
2026-05-05 13:58 21.32527 39.33727 2969 ft 211 kts 275°
2026-05-05 13:59 21.33881 39.31470 3002 ft 181 kts 326°
2026-05-05 13:59 21.34934 39.30741 2992 ft 180 kts 333°
2026-05-05 14:00 21.37243 39.29648 3014 ft 181 kts 341°
2026-05-05 14:00 21.38408 39.29192 3015 ft 176 kts 340°
2026-05-05 14:00 21.39578 39.28733 3046 ft 176 kts 341°
2026-05-05 14:00 21.40716 39.28285 3043 ft 175 kts 340°
2026-05-05 14:01 21.41850 39.27837 2883 ft 178 kts 341°
2026-05-05 14:01 21.43040 39.27369 2530 ft 179 kts 340°
2026-05-05 14:01 21.44169 39.26924 2307 ft 172 kts 340°
2026-05-05 14:01 21.45269 39.26491 2118 ft 163 kts 340°
2026-05-05 14:02 21.46264 39.26099 2077 ft 143 kts 340°
2026-05-05 14:02 21.47174 39.25741 2098 ft 139 kts 340°
2026-05-05 14:02 21.48089 39.25381 2100 ft 140 kts 340°
2026-05-05 14:02 21.49003 39.25021 2080 ft 139 kts 340°
2026-05-05 14:03 21.49916 39.24662 2099 ft 141 kts 339°
2026-05-05 14:03 21.50854 39.24291 2107 ft 145 kts 339°
2026-05-05 14:03 21.51799 39.23917 2081 ft 145 kts 340°
2026-05-05 14:03 21.52744 39.23543 2082 ft 144 kts 341°
2026-05-05 14:04 21.53682 39.23173 2097 ft 143 kts 341°
2026-05-05 14:04 21.54612 39.22807 2080 ft 141 kts 341°
2026-05-05 14:04 21.55535 39.22444 2101 ft 142 kts 340°
2026-05-05 14:04 21.56464 39.22078 2106 ft 142 kts 339°
2026-05-05 14:05 21.57393 39.21712 2114 ft 144 kts 339°
2026-05-05 14:05 21.58419 39.21309 2125 ft 169 kts 340°
2026-05-05 14:05 21.59560 39.20866 2013 ft 177 kts 340°
2026-05-05 14:05 21.60715 39.20417 1675 ft 176 kts 340°
2026-05-05 14:06 21.61868 39.19968 1341 ft 179 kts 340°
2026-05-05 14:06 21.63061 39.19495 985 ft 185 kts 338°
2026-05-05 14:06 21.64290 39.19007 685 ft 191 kts 338°
2026-05-05 14:06 21.65526 39.18504 382 ft 186 kts 338°
2026-05-05 14:07 21.66653 39.18050 138 ft 160 kts 339°
2026-05-05 14:07 21.67610 39.17673 40 ft 132 kts 340°
2026-05-05 14:07 21.68264 39.17411 34 ft 60 kts 340°
2026-05-05 14:07 21.68397 39.17358 32 ft 1 kts 340°
2026-05-05 14:08 21.68427 39.17346 32 ft 6 kts 340°
2026-05-05 14:08 21.68478 39.17326 32 ft 10 kts 340°
2026-05-05 14:08 21.68555 39.17296 32 ft 14 kts 340°
2026-05-05 14:08 21.68665 39.17251 31 ft 19 kts 338°
2026-05-05 14:09 21.68782 39.17184 31 ft 19 kts 325°
2026-05-05 14:09 21.68873 39.17089 32 ft 17 kts 310°
2026-05-05 14:09 21.68949 39.16992 32 ft 17 kts 309°
2026-05-05 14:09 21.69026 39.16898 31 ft 16 kts 315°
2026-05-05 14:10 21.69122 39.16838 31 ft 16 kts 339°
2026-05-05 14:10 21.69227 39.16790 30 ft 16 kts 320°
2026-05-05 14:10 21.69203 39.16718 30 ft 13 kts 189°
2026-05-05 14:10 21.69111 39.16742 31 ft 15 kts 160°
2026-05-05 14:11 21.69004 39.16785 31 ft 18 kts 160°
2026-05-05 14:11 21.68878 39.16835 32 ft 21 kts 160°
2026-05-05 14:11 21.68733 39.16893 33 ft 24 kts 160°
2026-05-05 14:11 21.68570 39.16958 33 ft 26 kts 160°
2026-05-05 14:12 21.68390 39.17027 34 ft 29 kts 160°
2026-05-05 14:12 21.68201 39.17101 35 ft 29 kts 160°
2026-05-05 14:12 21.68096 39.17143 35 ft 13 kts 160°
2026-05-05 14:12 21.68002 39.17169 36 ft 14 kts 187°
2026-05-05 14:13 21.67941 39.17084 36 ft 16 kts 245°
2026-05-05 14:13 21.67855 39.17055 36 ft 15 kts 163°
2026-05-05 14:13 21.67744 39.17099 37 ft 18 kts 159°
2026-05-05 14:13 21.67617 39.17149 37 ft 21 kts 159°
2026-05-05 14:14 21.67487 39.17184 38 ft 8 kts 194°
2026-05-05 14:14 21.67476 39.17180 38 ft 3 kts 199°
2026-05-05 14:14 21.67445 39.17158 38 ft 7 kts 215°
2026-05-05 14:14 21.67400 39.17120 38 ft 10 kts 219°
2026-05-05 14:15 21.67340 39.17067 38 ft 13 kts 219°
2026-05-05 14:15 21.67274 39.17005 38 ft 8 kts 201°
2026-05-05 14:15 21.67242 39.17021 38 ft 5 kts 137°
2026-05-05 14:15 21.67208 39.17051 39 ft 8 kts 141°
2026-05-05 14:16 21.67199 39.17058 39 ft 0 kts 143°